Zurück zum Katalog

SL-3 R/B

AktivPO
NORAD 11608·ROCKET BODY·🇷🇺 Russia

Gestartet Oct 31, 1979 von Plesetsk Cosmodrome

Loading…

Nächste Überflüge (nächste 24 Stunden)

TLE

AktuellSource: Space-Track

Epoche: Sep 14, 2026, 12:29 UTC

1 11608U 79095B   26257.52054993  .00000291  00000-0  16581-3 0  9991
2 11608  81.2161 173.6826 0054438  36.0645 324.4176 14.06574389404370

Verfolge SL-3 R/B in Echtzeit mit AllMySat

Download on the App Store